Location: Hanover
(52.3667°N, 9.7167°E)
Time: 06:29:32
(UTC+02:00)

Envisat - Pass Details

Date: 21 September 2024
Orbit: 762 x 764 km, 98.3° (Epoch: 04 October)

Event Time Altitude Azimuth Distance (km) Brightness Sun altitude
Rises 05:37:25 0° 10° (N) 3,240 6.7 -14.1°
Reaches altitude 10° 05:39:51 10° 3° (N) 2,310 5.8 -13.7°
Maximum altitude 05:44:31 38° 296° (WNW) 1,153 3.6 -13.0°
Enters shadow 05:48:02 16° 236° (SW) 1,894 4.4 -12.5°
